Overview Statistics Trail Chart Weather Telemetry Raw packets
 

This is the latest recevied weather packets stored in our database for station/object IZ1MEU-13. If no packets are shown the sender has not sent any weather packets the latest 10 day(s).

<< 2 3 4 5 6 7 8 >>
Time Temp. Humidity Pressure Rain* Wind** Luminosity Snow
1788447541 29.44° C 33% 1021.8 hPa - - - -
1788446338 30° C 32% 1021.9 hPa - - - -
1788445134 30° C 33% 1022 hPa - - - -
1788443931 28.89° C 34% 1022.2 hPa - - - -
1788442727 28.89° C 36% 1022.3 hPa - - - -
1788441524 28.33° C 36% 1022.6 hPa - - - -
1788440320 27.78° C 37% 1022.6 hPa - - - -
1788439117 27.78° C 38% 1022.5 hPa - - - -
1788437913 27.78° C 39% 1022.7 hPa - - - -
1788436710 27.22° C 40% 1022.8 hPa - - - -
1788435506 26.67° C 41% 1023.1 hPa - - - -
1788434303 26.67° C 42% 1023.3 hPa - - - -
1788433099 26.11° C 43% 1023.6 hPa - - - -
1788431896 25.56° C 44% 1023.8 hPa - - - -
1788430692 25.56° C 45% 1023.9 hPa - - - -
1788429488 25° C 46% 1024.2 hPa - - - -
1788428284 25° C 46% 1024.2 hPa - - - -
1788427080 24.44° C 47% 1024.3 hPa - - - -
1788425876 23.89° C 47% 1024.4 hPa - - - -
1788424672 23.33° C 48% 1024.5 hPa - - - -
1788423495 23.33° C 48% 1024.3 hPa - - - -
1788422264 22.78° C 49% 1024.2 hPa - - - -
1788421060 22.22° C 49% 1023.9 hPa - - - -
1788419857 22.22° C 50% 1023.9 hPa - - - -
1788418653 21.67° C 50% 1023.7 hPa - - - -

* Rain since midnight (hover to see other rain measurements)
** Current wind speed in m/s (hover to see current wind gust speed)